Location: Riverton
(43.0250°N, 108.3790°W)
Time: 12:13:15
(UTC-06:00)

Amateur Radio Satellites - All Passes

Search period start: 30 October 2014 11:43
Search period end: 31 October 2014 11:43
Location: Riverton, 43.0250°N, 108.3790°W

Satellite Date Start Highest point End Downlink Frequencies (MHz)
Time Altitude Azimuth
KITSAT 1 30 Oct 12:13:16 12:21:21 78° 303° (WNW) 12:29:29 435.175 FM
UOSAT-12 30 Oct 12:18:37 12:18:55 10° 106° (ESE) 12:19:12 437.025 FM, 437.400 FM
JAS-1B 30 Oct 12:20:04 12:22:50 14° 55° (NE) 12:25:37 435.800 - 435.900 CW/SSB
UKube-1 30 Oct 12:24:09 12:26:48 16° 298° (WNW) 12:29:26 145.840 MHz, 145.915 MHz
ZACube-1 30 Oct 12:30:11 12:33:44 27° 292° (WNW) 12:37:13 437.345 MHz
ISS 30 Oct 12:38:15 12:41:17 32° 338° (NNW) 12:44:20 145.800 FM
AO-Echo 30 Oct 12:49:58 12:52:02 13° 57° (ENE) 12:54:08 ?
Oscar 19 30 Oct 12:55:39 12:59:52 26° 65° (ENE) 13:04:05 437.125 CW, 437.150 USB
SO-50 30 Oct 13:04:42 13:08:51 34° 313° (NW) 13:13:07 436.795 FM
Sapphire 30 Oct 13:04:43 13:09:45 39° 248° (WSW) 13:14:44 437.095 MHz 1200 baud AX-25 AFSK
FUNcube-1 30 Oct 13:15:58 13:16:29 10° 300° (WNW) 13:17:01 145.950 - 145.970 MHz USB
PCSat 30 Oct 13:27:06 13:31:21 24° 253° (WSW) 13:35:35 145.825 MHz
AO-27 30 Oct 13:29:22 13:33:26 24° 63° (ENE) 13:37:31 436.795 MHz FM
Gurwin Techsat 1B 30 Oct 13:39:49 13:42:58 16° 59° (ENE) 13:46:08 435.225 FM
Oscar 16 30 Oct 13:41:25 13:46:31 69° 73° (ENE) 13:51:39 437.025 USB, Beacon 2401.1428
TMSAT-1 30 Oct 13:47:28 13:50:09 14° 58° (ENE) 13:52:49 436.925 FM
UOSAT-12 30 Oct 13:53:36 13:58:15 86° 124° (SE) 14:03:00 437.025 FM, 437.400 FM
JAS-1B 30 Oct 14:06:55 14:12:42 85° 255° (WSW) 14:18:28 435.800 - 435.900 CW/SSB
KITSAT 1 30 Oct 14:11:47 14:18:07 24° 327° (NNW) 14:24:29 435.175 FM
Uribyol 2 30 Oct 14:12:24 14:17:30 58° 72° (ENE) 14:22:39 436.500 FM
ISS 30 Oct 14:16:17 14:18:42 18° 359° (N) 14:21:08 145.800 FM
ITAMSAT 1 30 Oct 14:20:02 14:25:11 64° 72° (ENE) 14:30:22 435.822 SSB
AO-Echo 30 Oct 14:24:59 14:29:57 88° 75° (ENE) 14:35:09 ?
Oscar 19 30 Oct 14:34:11 14:39:00 41° 262° (W) 14:43:51 437.125 CW, 437.150 USB
Saudisat 1A 30 Oct 14:35:34 14:39:42 37° 48° (NE) 14:43:48 436.775 MHz
AO-7 30 Oct 15:01:03 15:07:51 30° 55° (NE) 15:14:40 29.400 - 29.500 MHz
AO-27 30 Oct 15:07:36 15:12:38 48° 261° (W) 15:17:42 436.795 MHz FM
Gurwin Techsat 1B 30 Oct 15:17:00 15:22:18 75° 257° (WSW) 15:27:38 435.225 FM
Oscar 16 30 Oct 15:23:29 15:26:22 15° 270° (W) 15:29:15 437.025 USB, Beacon 2401.1428
TMSAT-1 30 Oct 15:24:00 15:29:19 87° 256° (WSW) 15:34:40 436.925 FM
UOSAT-12 30 Oct 15:35:55 15:39:03 17° 323° (NW) 15:42:12 437.025 FM, 437.400 FM
ISS 30 Oct 15:53:14 15:56:10 28° 19° (NNE) 15:59:07 145.800 FM
JAS-2 30 Oct 15:53:41 15:56:43 14° 49° (NE) 15:59:52 435.800 - 435.900 CW/SSB, 435.910 FM
Uribyol 2 30 Oct 15:53:47 15:57:21 18° 268° (W) 16:00:56 436.500 FM
ITAMSAT 1 30 Oct 16:01:51 16:05:07 17° 269° (W) 16:08:24 435.822 SSB
AO-Echo 30 Oct 16:08:12 16:09:28 11° 273° (W) 16:10:45 ?
KITSAT 1 30 Oct 16:13:33 16:17:06 13° 357° (N) 16:20:39 435.175 FM
Saudisat 1A 30 Oct 16:15:24 16:19:07 27° 246° (WSW) 16:22:49 436.775 MHz
Uosat F 30 Oct 16:15:49 16:20:34 45° 69° (ENE) 16:25:22 435.120 FM
AO-7 30 Oct 16:51:46 17:00:00 70° 255° (WSW) 17:08:18 29.400 - 29.500 MHz
TMSAT-1 30 Oct 17:08:50 17:09:59 11° 273° (W) 17:11:09 436.925 FM
ISS 30 Oct 17:29:46 17:33:04 60° 217° (SW) 17:36:21 145.800 FM
JAS-2 30 Oct 17:34:01 17:40:13 66° 71° (ENE) 17:47:17 435.800 - 435.900 CW/SSB, 435.910 FM
Uosat F 30 Oct 17:55:38 17:59:33 23° 266° (W) 18:03:29 435.120 FM
Hamsat 30 Oct 18:04:09 18:08:19 72° 75° (ENE) 18:12:29 145.90 MHz
KITSAT 1 30 Oct 18:10:37 18:16:21 20° 28° (NNE) 18:22:05 435.175 FM
OPAL 30 Oct 18:19:08 18:23:53 45° 101° (ESE) 18:28:37 ?
AO-7 30 Oct 18:50:54 18:54:13 13° 274° (W) 18:57:34 29.400 - 29.500 MHz
AO-40 30 Oct 19:11:15 01:11:25 42° 164° (SSE) 02:57:25 Beacon 2401.320
JAS-2 30 Oct 19:21:10 19:25:58 22° 272° (W) 19:31:13 435.800 - 435.900 CW/SSB, 435.910 FM
Oscar 10/S400 30 Oct 19:29:58 19:57:02 54° 190° (S) 04:21:40 145.825 - 145.975 CW/USB, Beacon 145.810 USB
SO-67 30 Oct 19:30:30 19:33:56 89° 78° (ENE) 19:37:23 435.3500 MHz FM
SO-50 30 Oct 19:54:29 19:59:04 40° 49° (NE) 20:03:40 436.795 FM
OPAL 30 Oct 19:58:38 20:02:30 23° 299° (WNW) 20:06:20 ?
KITSAT 1 30 Oct 20:05:34 20:13:35 61° 53° (NE) 20:21:33 435.175 FM
HO-68 30 Oct 20:11:20 20:17:38 35° 61° (ENE) 20:23:58 435.675 MHz FM
STRAND 1 30 Oct 20:13:57 20:19:08 84° 104° (ESE) 20:24:16 ?
RS-15 30 Oct 20:25:13 20:34:02 29° 104° (ESE) 20:42:46 29.354 - 29.394 USB, Beacon 29.352 USB
UOSAT-12 30 Oct 20:43:18 20:46:26 17° 37° (NE) 20:49:33 437.025 FM, 437.400 FM
Oscar 11 30 Oct 20:45:23 20:47:08 12° 61° (ENE) 20:48:53 145.825 FM, Beacon 2401.500 USB
SO-50 30 Oct 21:35:19 21:39:30 29° 246° (WSW) 21:43:40 436.795 FM
UKube-1 30 Oct 21:42:52 21:47:06 53° 72° (ENE) 21:51:22 145.840 MHz, 145.915 MHz
ZACube-1 30 Oct 21:51:02 21:54:49 27° 68° (ENE) 21:58:32 437.345 MHz
STRAND 1 30 Oct 21:55:00 21:57:37 14° 302° (WNW) 22:00:13 ?
HO-68 30 Oct 21:58:12 22:05:06 50° 260° (W) 22:12:04 435.675 MHz FM
KITSAT 1 30 Oct 22:01:36 22:08:32 33° 253° (WSW) 22:15:26 435.175 FM
MaSat-1 30 Oct 22:03:52 22:06:53 22° 109° (ESE) 22:09:42 437.345 MHz
Oscar 11 30 Oct 22:18:26 22:22:45 70° 258° (WSW) 22:27:04 145.825 FM, Beacon 2401.500 USB
UOSAT-12 30 Oct 22:22:30 22:27:15 87° 238° (WSW) 22:31:54 437.025 FM, 437.400 FM
FUNcube-1 30 Oct 22:33:13 22:37:44 72° 75° (ENE) 22:42:10 145.950 - 145.970 MHz USB
RS-15 30 Oct 22:34:14 22:45:14 78° 306° (NW) 22:56:15 29.354 - 29.394 USB, Beacon 29.352 USB
UKube-1 30 Oct 23:21:08 23:23:36 15° 268° (W) 23:26:05 145.840 MHz, 145.915 MHz
ZACube-1 30 Oct 23:27:04 23:31:06 31° 264° (W) 23:35:05 437.345 MHz
MaSat-1 30 Oct 23:38:50 23:42:11 28° 302° (WNW) 23:45:15 437.345 MHz
UOSAT-12 31 Oct 00:05:59 00:06:36 10° 254° (WSW) 00:07:12 437.025 FM, 437.400 FM
FUNcube-1 31 Oct 00:13:04 00:14:33 11° 271° (W) 00:16:01 145.950 - 145.970 MHz USB
RS-15 31 Oct 00:50:20 00:59:38 31° 334° (NNW) 01:09:03 29.354 - 29.394 USB, Beacon 29.352 USB
JAS-1B 31 Oct 01:48:06 01:54:11 28° 95° (E) 02:01:06 435.800 - 435.900 CW/SSB
Oscar 16 31 Oct 01:52:56 01:56:54 22° 93° (E) 02:00:50 437.025 USB, Beacon 2401.1428
Sapphire 31 Oct 02:05:03 02:09:15 24° 107° (ESE) 02:13:29 437.095 MHz 1200 baud AX-25 AFSK
Uribyol 2 31 Oct 02:25:14 02:28:52 19° 92° (E) 02:32:28 436.500 FM
PCSat 31 Oct 02:25:50 02:30:48 38° 112° (ESE) 02:35:47 145.825 MHz
AO-Echo 31 Oct 02:31:41 02:36:15 28° 94° (E) 02:40:45 ?
ITAMSAT 1 31 Oct 02:32:52 02:36:46 21° 93° (E) 02:40:39 435.822 SSB
Oscar 19 31 Oct 02:44:23 02:49:29 66° 102° (ESE) 02:54:34 437.125 CW, 437.150 USB
RS-15 31 Oct 03:08:19 03:16:47 24° 10° (N) 03:25:26 29.354 - 29.394 USB, Beacon 29.352 USB
AO-27 31 Oct 03:19:30 03:24:40 57° 101° (E) 03:29:46 436.795 MHz FM
Oscar 16 31 Oct 03:31:34 03:36:28 46° 290° (WNW) 03:41:20 437.025 USB, Beacon 2401.1428
Gurwin Techsat 1B 31 Oct 03:32:27 03:37:28 41° 98° (E) 03:42:26 435.225 FM
JAS-1B 31 Oct 03:38:06 03:44:59 63° 289° (WNW) 03:53:14 435.800 - 435.900 CW/SSB
TMSAT-1 31 Oct 03:39:13 03:44:04 35° 97° (E) 03:48:53 436.925 FM
Sapphire 31 Oct 03:47:02 03:52:18 52° 305° (NW) 03:57:38 437.095 MHz 1200 baud AX-25 AFSK
OPAL 31 Oct 03:59:24 04:01:48 14° 56° (NE) 04:04:12 ?
Uribyol 2 31 Oct 04:03:36 04:08:41 56° 289° (WNW) 04:13:44 436.500 FM
PCSat 31 Oct 04:09:19 04:14:14 34° 310° (NW) 04:19:11 145.825 MHz
AO-Echo 31 Oct 04:10:09 04:15:04 39° 292° (WNW) 04:19:56 ?
ITAMSAT 1 31 Oct 04:11:29 04:16:32 50° 290° (WNW) 04:21:32 435.822 SSB
Uosat F 31 Oct 04:24:34 04:26:37 12° 89° (E) 04:28:40 435.120 FM
Oscar 19 31 Oct 04:25:02 04:28:18 17° 299° (WNW) 04:31:33 437.125 CW, 437.150 USB
JAS-2 31 Oct 04:46:34 04:48:02 11° 81° (E) 04:49:30 435.800 - 435.900 CW/SSB, 435.910 FM
AO-7 31 Oct 04:52:25 05:00:05 39° 98° (E) 05:07:42 29.400 - 29.500 MHz
AO-27 31 Oct 04:59:59 05:03:44 20° 298° (WNW) 05:07:27 436.795 MHz FM
Gurwin Techsat 1B 31 Oct 05:12:47 05:17:14 28° 295° (WNW) 05:21:40 435.225 FM
TMSAT-1 31 Oct 05:19:16 05:23:54 32° 294° (WNW) 05:28:31 436.925 FM
RS-15 31 Oct 05:22:08 05:32:48 48° 42° (NE) 05:43:50 29.354 - 29.394 USB, Beacon 29.352 USB
JAS-1B 31 Oct 05:31:46 05:34:34 13° 307° (NW) 05:37:31 435.800 - 435.900 CW/SSB
OPAL 31 Oct 05:34:51 05:39:59 88° 254° (WSW) 05:45:04 ?
Sapphire 31 Oct 05:34:59 05:37:02 12° 327° (NNW) 05:39:06 437.095 MHz 1200 baud AX-25 AFSK
Hamsat 31 Oct 05:50:48 05:52:22 12° 89° (E) 05:53:57 145.90 MHz
STRAND 1 31 Oct 05:53:51 05:57:16 18° 61° (ENE) 06:00:42 ?
Uosat F 31 Oct 06:00:56 06:06:00 79° 286° (WNW) 06:11:02 435.120 FM
Saudisat 1A 31 Oct 06:21:42 06:26:01 62° 120° (ESE) 06:30:23 436.775 MHz
JAS-2 31 Oct 06:26:46 06:34:34 60° 100° (E) 06:42:05 435.800 - 435.900 CW/SSB, 435.910 FM
AO-7 31 Oct 06:45:05 06:53:01 51° 297° (WNW) 07:00:58 29.400 - 29.500 MHz
OPAL 31 Oct 07:18:31 07:19:31 11° 270° (W) 07:20:31 ?
Hamsat 31 Oct 07:24:32 07:28:42 62° 286° (WNW) 07:32:54 145.90 MHz
STRAND 1 31 Oct 07:30:52 07:35:57 63° 258° (WSW) 07:41:05 ?
RS-15 31 Oct 07:34:40 07:45:32 59° 246° (WSW) 07:56:52 29.354 - 29.394 USB, Beacon 29.352 USB
Uosat F 31 Oct 07:42:31 07:43:56 11° 304° (WNW) 07:45:21 435.120 FM
MaSat-1 31 Oct 07:46:49 07:49:11 35° 59° (ENE) 07:51:24 437.345 MHz
Saudisat 1A 31 Oct 08:02:44 08:05:58 20° 320° (NW) 08:09:13 436.775 MHz
JAS-2 31 Oct 08:12:20 08:19:05 33° 298° (WNW) 08:25:45 435.800 - 435.900 CW/SSB, 435.910 FM
SO-67 31 Oct 08:25:32 08:29:00 87° 286° (WNW) 08:32:26 435.3500 MHz FM
AO-7 31 Oct 08:40:40 08:43:53 13° 319° (NW) 08:47:06 29.400 - 29.500 MHz
HO-68 31 Oct 09:24:57 09:31:13 31° 95° (E) 09:37:26 435.675 MHz FM
RS-15 31 Oct 09:52:36 09:55:24 11° 266° (W) 09:58:14 29.354 - 29.394 USB, Beacon 29.352 USB
Oscar 11 31 Oct 10:05:54 10:09:03 19° 93° (E) 10:12:10 145.825 FM, Beacon 2401.500 USB
ISS 31 Oct 10:12:41 10:15:29 26° 136° (SE) 10:18:18 145.800 FM
FUNcube-1 31 Oct 10:23:34 10:25:09 12° 89° (E) 10:26:43 145.950 - 145.970 MHz USB
KITSAT 1 31 Oct 10:35:24 10:42:31 36° 108° (ESE) 10:49:38 435.175 FM
Sapphire 31 Oct 10:51:04 10:55:39 27° 46° (NE) 11:00:12 437.095 MHz 1200 baud AX-25 AFSK
UKube-1 31 Oct 11:05:59 11:10:23 87° 104° (ESE) 11:14:44 145.840 MHz, 145.915 MHz
HO-68 31 Oct 11:12:14 11:19:10 53° 294° (WNW) 11:26:05 435.675 MHz FM
PCSat 31 Oct 11:12:30 11:17:37 40° 51° (NE) 11:22:41 145.825 MHz
ZACube-1 31 Oct 11:14:56 11:18:59 45° 99° (E) 11:22:58 437.345 MHz
